Location: Unspecified
(48.7670°N, 0.0000°E)
Time: 04:08:13
(UTC+00:00)

Vanguard 2 Rocket - Pass Details

Date: 10 October 2020
Orbit: 554 x 3326 km, 32.9° (Epoch: 26 October)

Event Time Altitude Azimuth Distance (km) Brightness Sun altitude
Exits shadow 00:18:34 24° 116° (ESE) 4,715 10.3 -47.4°
Drops below altitude 10° 00:25:12 10° 103° (ESE) 6,094 11.0 -47.2°
Sets 00:30:48 0° 97° (E) 7,271 11.6 -47.0°
